{"data":{"norad_id":56756,"epoch":"2026-09-21T22:39:49.138272Z","epoch_age_seconds":71924,"freshness":"FRESH","line1":"1 56756U 23074A   26264.94431873  .00002311  00000+0  11139-3 0  9998","line2":"2 56756  97.4383  98.1229 0001760  87.8856 272.2580 15.19720001184388","mean_motion":15.19720001,"eccentricity":0.000176,"inclination_deg":97.4383,"raan_deg":98.1229,"arg_perigee_deg":87.8856,"mean_anomaly_deg":272.258,"bstar":0.00011139,"rev_number":18438,"period_min":94.754296781806,"perigee_km":505.47441240619,"apogee_km":507.89787015192,"semimajor_km":6884.8231412791,"source":"CELESTRAK","updated_at":"2026-09-22T09:00:25.906912Z"}}